Location: ??????????
(54.4061°N, 22.6114°E)
Time: 18:04:09
(UTC+00:00)

STARLINK-71 - Pass Details

Date: 23 October 2019
Orbit: 548 x 551 km, 53.0° (Epoch: 17 November)

Event Time Altitude Azimuth Distance (km) Brightness Sun altitude
Rises 17:38:53 0° 280° (W) 2,722 8.7 -21.6°
Reaches altitude 10° 17:41:10 10° 276° (W) 1,827 7.4 -22.0°
Maximum altitude 17:45:11 51° 200° (SSW) 701 4.1 -22.5°
Enters shadow 17:45:25 50° 188° (S) 707 4.0 -22.6°
